STARLINK-4069 (53271 NORAD) Tracking and Keplerian Element Data

This shows tracking and keplerian element data for the satellite.

Feedback or suggestion? Click here.




ElementValue
Catalog53271
NameSTARLINK-4069
Epoch Orbit130
Epoch Day269.91667824
Epoch Year2022
RAAN84.8069
Inclination53.217
Eccentricity0.0001507
Argument of Perigee39.4004
Mean Anonmoly31.0616
Mean Motion15.63743634
Decay Rate-0.01033693
L11 53271U 22086AF 22269.91667824 -.01033693 00000+0 -12084-1 0 9992
L22 53271 53.2170 84.8069 0001507 39.4004 31.0616 15.63743634 1309

Live tracking and technical data element details for STARLINK-4069 (NORAD 53271). STARLINK-4069 can be tracked NOW for your location showing map with azimuth and elevation plus other details from your city location.

Track the satellite on the map from your city or location and see movement details for azimuth, elevation, latitude, longitude, range, height, and movement on the map or in text.







IsCatalogInMostPopularTable: catalog: 53271, numindb: 1
Update: records affected: 1



GetName: 53271 STARLINK-4069

Hit Count: updated at: Wed, 28 Sep 2022 23:19:31 GMT